Location: Newark
(47.9264°N, 3.6000°E)
Time: 21:02:56
(UTC+00:00)

N. Korean satellite - Pass Details

Date: 10 April 2020
Orbit: 455 x 504 km, 97.2° (Epoch: 06 June)

Event Time Altitude Azimuth Distance (km) Brightness Sun altitude
Rises 04:27:42 0° 32° (NNE) 2,486 11.1 -6.9°
Reaches altitude 10° 04:30:42 10° 61° (ENE) 1,604 10.9 -6.4°
Maximum altitude 04:32:22 13° 90° (E) 1,423 10.3 -6.2°
Drops below altitude 10° 04:34:02 10° 120° (ESE) 1,597 9.8 -5.9°
Sets 04:36:59 0° 149° (SSE) 2,468 10.3 -5.4°
